Regional Weather Roundup
Issued by NWS San Diego, CA

Home | Current Version | Previous Version | Text Only | Print | Product List | Glossary On
Versions: 1 2 3 4 5 6 7 8 9 10 11 12 13 14 15 16 17 18 19 20 21 22 23 24 25 26 27 28 29 30 31 32 33 34 35 36 37 38 39 40 41 42 43 44 45 46 47 48 49 50
624
ASUS46 KSGX 200811
RWRSGX

SAN DIEGO HOURLY WEATHER ROUNDUP
NATIONAL WEATHER SERVICE SAN DIEGO CA
1200 AM PST FRI JAN 20 2017

NOTE: "FAIR" INDICATES FEW OR NO CLOUDS BELOW 12,000 FEET WITH NO
SIGNIFICANT WEATHER AND/OR OBSTRUCTIONS TO VISIBILITY.

CAZ042-043-060-061-PZZ750-775-200900-

GREATER SAN DIEGO AREA

CITY           SKY/WX    TMP DP  RH WIND       PRES   REMARKS
SAN DIEGO AP   CLOUDY    57  49  74 SE3       29.92F
NATIONAL CITY    N/A     54  51  88 CALM      29.91F
CHULA VISTA      N/A     52  51  96 SE2       29.84F
IMPERIAL BEACH CLOUDY    55  51  86 E5        29.91F
BROWN FIELD    LGT RAIN  53  51  93 SE7       29.91F
MIRAMAR MCAS   MOCLDY    55  50  83 SE6       29.90F
MONTGOMERY FLD MOCLDY    52  48  86 E5        29.90F

$$

NORTH SAN DIEGO COUNTY

CITY           SKY/WX    TMP DP  RH WIND       PRES   REMARKS
CAMP PENDLETON MOCLDY    52  51  97 NE3       29.89F
OCEANSIDE AP   PTCLDY    54  50  86 SW3       29.88F
OCEANSIDE HBR    N/A     56  51  83 CALM      29.91F
VISTA            N/A     53  48  84 CALM      29.89F
CARLSBAD       CLOUDY    53  51  93 SE3       29.88F
DEL MAR          N/A     56  53  89 W1        29.92F
LA JOLLA SCRIP   N/A     56  52  85 SW1       29.90F
FALLBROOK        N/A     51  51 100 CALM      29.89F
ESCONDIDO        N/A     52  49  90 CALM      29.92F
SAN MARCOS       N/A     52  47  85 CALM      29.92F
POWAY            N/A     51  48  90 CALM      29.94F

$$

EAST SAN DIEGO COUNTY

CITY           SKY/WX    TMP DP  RH WIND       PRES   REMARKS
RAMONA         CLOUDY    48  48 100 NE3       29.90F
SANTEE LAKES     N/A     50  48  93 CALM      29.91F
LA MESA          N/A     51  49  91 CALM      29.85F
JAMUL            N/A     47  46  95 CALM      29.93F
DESCANSO N       N/A     40  39  97 W3        29.86F
CAMPO            N/A     45  44  97 W10       29.85F

$$

ORANGE COUNTY AND THE LOS ANGELES BASIN

CITY           SKY/WX    TMP DP  RH WIND       PRES   REMARKS
JOHN WAYNE AP  PTCLDY    54  50  86 S5        29.87F
LAGUNA BEACH     N/A     52  50  92 CALM      29.82F
LAKE FOREST FR   N/A     50  47  89 CALM      29.78F
HUNTINGTON BCH   N/A     56  52  86 W5        29.88F
LOS ALAMITOS   FAIR      53  51  91 SW3       29.86F
FULLERTON      CLOUDY    54  53  97 E3        29.86F
LONG BEACH     MOCLDY    55  50  83 SW3       29.86F
L.A. AP        MOCLDY    55  50  83 W15       29.87F
L.A. DOWNTOWN  MOCLDY    54  52  93 CALM      29.86F

$$

THE INLAND EMPIRE

CITY           SKY/WX    TMP DP  RH WIND       PRES   REMARKS
CORONA         CLOUDY    52  50  93 CALM      29.87F
CHINO          LGT RAIN  52  49  89 CALM      29.88F FOG
ONTARIO        LGT RAIN  49  49 100 SW3       29.86F
SAN BERNARDINO HVY RAIN  50  47  87 CALM      29.88S
RIVERSIDE AP   NOT AVBL
MORENO VALLEY    N/A     48  47  99 S1        27.98F
MARCH ARB      MOCLDY    47  47 100 CALM      29.86F
HORSETHIEF CYN   N/A     47  43  85 CALM      29.89F
PERRIS           N/A     48  47  97 SE3       29.89F
HEMET EAST       N/A     46  42  86 CALM      29.95F
FRENCH VALLEY  NOT AVBL
TEMECULA         N/A     52  50  93 S5        29.95F

$$

SAN BERNARDINO AND RIVERSIDE COUNTY MOUNTAINS

CITY           SKY/WX    TMP DP  RH WIND       PRES   REMARKS
BIG BEAR AP    LGT SNOW  30  28  93 W9        29.79F WCI  22
PINE COVE        N/A     32  32 100 NW2       29.90F

$$

SOUTHERN DESERT INCLUDING THE COACHELLA VALLEY

CITY           SKY/WX    TMP DP  RH WIND       PRES   REMARKS
PALM SPRINGS   PTCLDY    49  47  93 N8        29.82F
PALM DESERT      N/A     50  45  81 CALM      27.02
THERMAL        PTCLDY    52  43  71 CALM      29.81F
BLYTHE         CLOUDY    54  41  61 SW13      29.81F
IMPERIAL AP    PTCLDY    53  41  63 W12       29.85F
EL CENTRO NAS  PTCLDY    53  40  61 W13       29.87F
YUMA AZ        MOCLDY    54  39  57 SW5       29.85
MEXICALI       PTCLDY    55  39  54 W9        29.86F

$$

UPPER DESERT

CITY           SKY/WX    TMP DP  RH WIND       PRES   REMARKS
VICTORVILLE AP PTCLDY    41  37  87 CALM      29.79F
HESPERIA         N/A     43  39  84 SW9       29.92F
PALMDALE       PTCLDY    47  40  76 W16G23    29.80F
LANCASTER      MOCLDY    46  40  79 SW17      29.81F
EDWARDS AFB    MOCLDY    45  44  95 W9        29.77F
DAGGETT        PTCLDY    49  40  71 SW16      29.77F
29 PALMS N     MOCLDY    46  38  73 CALM      29.84F
NEEDLES        MOCLDY    50  45  83 CALM      29.78F

$$

REGIONAL REPORTS

CITY           SKY/WX    TMP DP  RH WIND       PRES   REMARKS
SANTA BARBARA  MOCLDY    47  46  97 CALM      29.86F
SANDBERG       FOG       39  37  92 SW13      29.81F VSB 1/4 WCI  31
LAS VEGAS NV   MOCLDY    50  31  48 VRB3      29.70F
PHOENIX AZ     MOCLDY    50  46  86 E5        29.83F
TIJUANA        MOCLDY    54  48  82 CALM      29.94F
ENSENADA NW      N/A     55  32  41 CALM      29.92F

$$

OFFSHORE ISLANDS

CITY           SKY/WX    TMP DP  RH WIND       PRES   REMARKS
CATALINA ARPT  FOG       50  50 100 SW9       29.87F VSB 1/4
SAN NICOLAS IS   N/A    N/A N/A N/A MISG      29.88S

$$

MARINE AND OFFSHORE BUOY REPORTS

STATION/POSITION SKY/WX   TEMP    WIND        PRES    VSBY  SWELL
                          AIR SEA DIR/SP/G                  HT/PER/DIR
                          (F)     (DEG/KT/KT) (MB)    (MI)  (FT/S/D)
TANNER BANKS               59 59  250/ 10/ 14 1012.7          8/280/13
S CLEMENTE BASIN           55 61  280/ 21/ 25 1013.4          7/260/14
SAN NICOLAS IS.               59                N/A           8/300/13
SO. S. ROSA ISLA           56 57  250/ 14/ 16 1012.1         11/290/12
W. S. BARBARA CH           56 58  270/ 10/ 12 1011.9         11/280/13
M. S. BARBARA CH                                N/A           8/250/13
S. MONICA BASIN            57 59  270/ 14/ 17 1011.3F         7/260/12
S PEDRO CHANNEL               60                N/A           5/270/13
CMP PENDLETON NS              59                N/A           2/250/13
OCEANSIDE OFFSHR              60                N/A           2/260/13
TORREY PINES OTR              60                N/A           3/290/13
POINT LOMA SOUTH              60                N/A           5/280/13

$$





USA.gov is the U.S. government's official web portal to all federal, state and local government web resources and services.